Powrót do katalogu

JILIN-1 GAOFEN 07A 02 XING

AktywnyNaukaSSO
NORAD 68691·PAYLOAD·🇨🇳 China
Ta nazwa satelity nie została jeszcze potwierdzona przez oficjalne źródła.

Wystrzelony Apr 14, 2026 z Jiuquan Satellite Launch Center

Loading…

Następne Przeloty (najbliższe 24 godziny)

TLE

ŚwieżeSource: Space-Track

Epoka: Sep 14, 2026, 13:01 UTC

1 68691U 26080A   26257.54238157  .00003910  00000-0  25235-3 0  9996
2 68691  97.6557 332.8850 0014828 124.6252 235.6377 15.08777441 23131

Śledź JILIN-1 GAOFEN 07A 02 XING w czasie rzeczywistym z AllMySat

Download on the App Store